Worcester, MA

12:13 AM EDT on July 24, 2017 (GMT -0400)
Worcester Regional

Weather History for KORH - August, 2013

Change the Weather History Date:

Sunday, August 18, 2013

  Actual Average Record
Temperature  
Mean Temperature 67 °F 69 °F  
Max Temperature 75 °F 77 °F 91 °F (1935)
Min Temperature 59 °F 60 °F 45 °F (1941)
Degree Days  
Heating Degree Days 0 1  
Month to date heating degree days 9 9  
Since 1 June heating degree days 83 106  
Since 1 July heating degree days 16 23  
Cooling Degree Days 2 5  
Month to date cooling degree days 39 96  
Year to date cooling degree days 464 377  
Since 1 June cooling degree days 440 355  
Growing Degree Days 16 (Base 50)    
Moisture  
Dew Point 57 °F    
Average Humidity 70    
Maximum Humidity 90    
Minimum Humidity 49    
Precipitation  
Precipitation 0.00 in 0.11 in 4.61 in (1955)
Month to date precipitation 2.86 2.29  
Year to date precipitation 32.70 29.94  
Sea Level Pressure  
Sea Level Pressure 30.23 in    
Wind  
Wind Speed 6 mph (WSW)    
Max Wind Speed 12 mph    
Max Gust Speed 15 mph    
Visibility 10 miles    
Events      
T = Trace of Precipitation, MM = Missing Value Source: NWS Daily Summary

Daily Weather History Graph

Daily Weather History Graph

Search for Another Location

Airport or City:

Trip Planner

Search our weather history database for the weather conditions in past years. The results will help you decide how hot, cold, wet, or windy it might be!

Date:

Astronomy

Aug. 18, 2013 Rise Set
Actual Time 5:58 AM EDT 7:43 PM EDT
Civil Twilight 5:28 AM EDT 8:13 PM EDT
Nautical Twilight 4:51 AM EDT 8:49 PM EDT
Astronomical Twilight 4:12 AM EDT 9:28 PM EDT
Moon 5:48 PM EDT (8/18) 3:02 AM EDT (8/18)
Length of Visible Light 14h 45m
Length of Day
13h 45m
Waxing Gibbous, 92% of the Moon is Illuminated
Aug 18
Waxing Gibbous
Aug 20
Full
Aug 28
Last Quarter
Sep 5
New
Sep 12
First Quarter

Hourly Weather History & Observations

Time (EDT) Temp. Dew Point Humidity Pressure Visibility Wind Dir Wind Speed Gust Speed Precip Events Conditions
12:54 AM 63.0 °F 57.0 °F 81% 30.29 in 10.0 mi WSW 6.9 mph - N/A   Clear
1:54 AM 62.1 °F 57.0 °F 84% 30.28 in 10.0 mi WSW 6.9 mph - N/A   Clear
2:54 AM 62.1 °F 55.9 °F 80% 30.28 in 10.0 mi WSW 6.9 mph - N/A   Clear
3:54 AM 61.0 °F 55.9 °F 83% 30.28 in 10.0 mi West 6.9 mph - N/A   Clear
4:54 AM 59.0 °F 55.0 °F 87% 30.28 in 10.0 mi West 8.1 mph - N/A   Clear
5:54 AM 61.0 °F 55.0 °F 81% 30.28 in 10.0 mi WNW 8.1 mph - N/A   Clear
6:54 AM 62.1 °F 57.0 °F 84% 30.28 in 10.0 mi WNW 4.6 mph - N/A   Clear
7:54 AM 66.0 °F 57.9 °F 75% 30.28 in 10.0 mi WNW 4.6 mph - N/A   Clear
8:54 AM 68.0 °F 60.1 °F 76% 30.29 in 10.0 mi WSW 4.6 mph - N/A   Clear
9:54 AM 71.1 °F 57.9 °F 63% 30.28 in 10.0 mi SSW 3.5 mph - N/A   Clear
10:54 AM 73.0 °F 55.9 °F 55% 30.28 in 10.0 mi South 4.6 mph - N/A   Clear
11:54 AM 72.0 °F 57.0 °F 59% 30.28 in 10.0 mi SSW 4.6 mph - N/A   Clear
12:54 PM 73.9 °F 55.9 °F 53% 30.26 in 10.0 mi SSW 6.9 mph - N/A   Clear
1:54 PM 73.9 °F 53.1 °F 48% 30.25 in 10.0 mi SW 5.8 mph - N/A   Partly Cloudy
2:54 PM 73.0 °F 54.0 °F 51% 30.22 in 10.0 mi West 3.5 mph - N/A   Clear
3:54 PM 72.0 °F 55.0 °F 55% 30.19 in 10.0 mi SSW 4.6 mph - N/A   Clear
4:54 PM 71.1 °F 57.9 °F 63% 30.19 in 10.0 mi SSW 4.6 mph - N/A   Scattered Clouds
5:54 PM 70.0 °F 59.0 °F 68% 30.17 in 10.0 mi WSW 4.6 mph - N/A   Clear
6:54 PM 69.1 °F 60.1 °F 73% 30.16 in 10.0 mi SSW 4.6 mph - N/A   Clear
7:54 PM 66.9 °F 61.0 °F 81% 30.16 in 10.0 mi SW 8.1 mph - N/A   Clear
8:54 PM 64.0 °F 60.1 °F 87% 30.16 in 10.0 mi SW 6.9 mph - N/A   Clear
9:54 PM 62.1 °F 59.0 °F 90% 30.14 in 10.0 mi WSW 5.8 mph - N/A   Clear
10:54 PM 62.1 °F 57.9 °F 86% 30.12 in 10.0 mi WSW 6.9 mph - N/A   Clear
11:54 PM 61.0 °F 57.9 °F 90% 30.12 in 10.0 mi West 10.4 mph - N/A   Clear